Regional Weather Roundup
Issued by NWS

Home | Current Version | Previous Version | Graphics & Text | Print | Product List | Glossary On
Versions: 1 2 3 4 5 6 7 8 9 10 11 12 13 14 15 16 17 18 19 20 21 22 23 24 25 26 27 28
000
ASUS45 KTFX 271710
RWRMT
MONTANA REGIONAL WEATHER ROUNDUP
NATIONAL WEATHER SERVICE GREAT FALLS MT
1100 AM MDT THU APR 27 2017

NOTE: "FAIR" INDICATES FEW OR NO CLOUDS BELOW 12000 FEET WITH NO
SIGNIFICANT WEATHER AND/OR OBSTRUCTIONS TO VISIBILITY.

MTZ001>007-043-271800-
WEST OF THE DIVIDE

CITY           SKY/WX    TMP DP  RH WIND       PRES   REMARKS
KALISPELL      CLOUDY    43  33  68 S16       29.74R
MISSOULA       CLOUDY    43  29  57 W15       29.81S
BUTTE          CLOUDY    38  19  46 NW17G25   29.72S WCI  28
MULLAN PASS    SNOW      24  24 100 VRB3      29.77R VSB 1/2
ANACONDA         N/A     39  19  45 W14G25    29.74R WCI  31
DEER LODGE       N/A     41  25  52 NW17      29.75S
EUREKA           N/A     41  36  81 E7        29.73R
HAMILTON         N/A     45  19  36 NW5       29.80S
LIBBY            N/A     48  30  49 E3        29.75S
PLAINS           N/A     45  27  49 SW9       29.84
$$

MTZ008-052>055-271800-
SOUTHWEST MONTANA

CITY           SKY/WX    TMP DP  RH WIND       PRES   REMARKS
BOZEMAN        CLOUDY    39  33  79 W8        29.71S
DILLON         MOSUNNY   41  25  53 SE6       29.71S
W YELLOWSTONE  LGT SNOW  32  28  86 CALM      29.68R
ENNIS          FOG       32  30  93 E10G17    29.76R VSB 3/4 WCI  24
THREE FORKS      N/A     44  44 100 SW2       29.72F
TWIN BRIDGES     N/A     43  17  35 W3        29.74
$$

MTZ009-010-012-014-046-048-049-054-271800-
EAST SLOPES AND CENTRAL MONTANA

CITY           SKY/WX    TMP DP  RH WIND       PRES   REMARKS
CUT BANK       LGT SNOW  35  34  96 N17       29.68R FOG     WCI  25
GREAT FALLS    LGT RAIN  42  36  79 NW13      29.67R
HELENA         CLOUDY    44  28  53 W22G32    29.70R
AUGUSTA        LGT RAIN  38  34  85 CALM      29.66R
CHOTEAU          N/A     37  37 100 N9        29.70R WCI  31
RAYNESFORD     LGT RAIN  41  33  72 W7        29.66R
$$

MTZ011-013-016-021-045-047-050-051-271800-
NORTH CENTRAL MONTANA

CITY           SKY/WX    TMP DP  RH WIND       PRES   REMARKS
HAVRE          CLOUDY    44  40  85 N13       29.65R
LEWISTOWN      CLOUDY    44  36  73 NW8       29.63R
CHINOOK          N/A     39  36  87 E7        29.65S
FORT BENTON      N/A     45  39  81 MISG      29.67S
GEYSER         PTSUNNY   43  35  72 W17       29.64R
JUDITH GAP     PTSUNNY   42  37  79 N18       29.61S
STANFORD       PTSUNNY   44  35  70 NW21      29.63S
$$

MTZ017>020-022>027-061-062-271800-
NORTHEAST MONTANA

CITY           SKY/WX    TMP DP  RH WIND       PRES   REMARKS
GLASGOW        CLOUDY    48  25  40 SE15      29.68S
JORDAN           N/A     48  30  49 SE10      29.64S
SIDNEY         SUNNY     44  25  47 E12G17    29.73F
WOLF POINT     SUNNY     48  28  46 SE9       29.71S
MALTA          MOSUNNY   37  36  93 E8        29.68R WCI  31
PLENTYWOOD       N/A     41  21  45 E10       29.75S
POPLAR           N/A     45  27  49 E8G16     29.73S
SCOBEY           N/A     45  24  43 E10       29.72
$$

MTZ028>42-056>058-271800-
SOUTHCENTRAL AND SOUTHEAST MONTANA

CITY           SKY/WX    TMP DP  RH WIND       PRES   REMARKS
BAKER          SUNNY     41  28  60 SE13G23   29.67S
BILLINGS       LGT RAIN  44  40  85 N13       29.61R
LIVINGSTON     LGT RAIN  39  35  86 SW17      29.67R WCI  30
MILES CITY     CLOUDY    50  28  42 E9        29.63F
BIG TIMBER     CLOUDY    41  36  81 W22G31    29.67S
EKALAKA          N/A     42  27  55 E12       29.65
LAUREL           N/A     46  34  63 NW7       29.64R
ROUNDUP          N/A     42  37  82 N5        29.58R
$$

REGIONAL REPORTS...DAKOTAS

CITY           SKY/WX    TMP DP  RH WIND       PRES   REMARKS
WILLISTON      SUNNY     45  22  40 E13       29.75F
MINOT          SUNNY     43  14  31 N9        29.76F
DICKINSON      SUNNY     40  25  55 NE9       29.69S
BEACH            N/A     43  25  49 E13G20    29.72S
TIOGA            N/A     39  14  35 E13       29.76F WCI  32
WATFORD CITY     N/A     43  21  42 NE13      29.74S
BISMARCK       SUNNY     44  22  41 NE9       29.74S
GRAND FORKS    MOSUNNY   34  24  67 N15       29.70F WCI  24
FARGO          CLOUDY    31  23  72 N15       29.70R WCI  20
BUFFALO SD       N/A     38  30  73 E14       29.61S WCI  30
RAPID CITY     CLOUDY    42  32  67 SE7       29.66S
$$

REGIONAL REPORTS...WYOMING/IDAHO/WASHINGTON

CITY           SKY/WX    TMP DP  RH WIND       PRES   REMARKS
GILLETTE       CLOUDY    40  35  83 SE9       29.56S
SHERIDAN       CLOUDY    37  34  89 CALM      29.59R
BUFFALO WY     MIX PCPN  36  32  85 N18       29.56R WCI  26
CODY           CLOUDY    41  35  79 N14       29.60S
IDAHO FALLS    CLOUDY    43  34  70 SW18      29.74S
SALMON         PTSUNNY   45  25  45 NW13      29.79S
BOISE          CLOUDY    43  32  65 W17       29.96R
SPOKANE        PTSUNNY   44  32  62 SW18      29.85F
$$

REGIONAL REPORTS...ALBERTA

CITY           SKY/WX    TMP DP  RH WIND       PRES   REMARKS
EDMONTON       CLOUDY    37  32  81 E5        29.78R
CALGARY        LGT RAIN  39  32  75 SW7       29.70R
LETHBRIDGE     LGT RAIN  39  36  87 N8        29.72R
MEDICINE HAT   PTSUNNY   45  36  70 N5        29.71S
CARDSTON         N/A     36  34  93 N5          N/A
MILK RIVER       N/A     37  36  93 N12         N/A  WCI  30
$$

REGIONAL REPORTS...SASKATCHEWAN

CITY           SKY/WX    TMP DP  RH WIND       PRES   REMARKS
SWIFT CURRENT  PTSUNNY   46  27  46 SE15G21   29.68S
REGINA         MOSUNNY   43  16  33 E13       29.80S
SASKATOON      CLOUDY    39  23  52 E13       29.83S WCI  32
CYPRESS HILLS    N/A     34  32  93 N6          N/A  WCI  29
ROCKGLEN         N/A     43  27  52 SE10        N/A
$$




USA.gov is the U.S. government's official web portal to all federal, state and local government web resources and services.